CONNECTA IOT-3 (60475 NORAD) Tracking and Keplerian Element Data

This shows tracking and keplerian element data for the satellite.

Feedback or suggestion? Click here.




ElementValue
Catalog60475
NameCONNECTA IOT-3
Epoch Orbit864
Epoch Day286.79288133
Epoch Year2024
RAAN1.3655
Inclination97.4331
Eccentricity0.0002887
Argument of Perigee242.4608
Mean Anonmoly117.6333
Mean Motion15.1860157
Decay Rate0.00013576
L11 60475U 24149H 24286.79288133 .00013576 00000+0 65879-3 0 9994
L22 60475 97.4331 1.3655 0002887 242.4608 117.6333 15.18601570 8648



Live tracking and technical data element details for CONNECTA IOT-3 (NORAD 60475). CONNECTA IOT-3 can be tracked NOW for your location showing map with azimuth and elevation plus other details from your city location.







IsCatalogInMostPopularTable: catalog: 60475, numindb: 5
Update: records affected: 1



GetName: 60475 CONNECTA IOT-3

Hit Count: updated at: Wed, 04 Dec 2024 18:27:07 GMT